Weather History for Hamilton, TX

Change the Weather History Date:

Thursday, May 16, 2013

  Actual Average (KACT) Record (KACT)
Temperature  
Mean Temperature 74 °F 74 °F  
Max Temperature 86 °F 85 °F 97 °F (2003)
Min Temperature 61 °F 64 °F 48 °F (2014)
Degree Days  
Heating Degree Days 0 0  
Month to date heating degree days 4  
Since 1 July heating degree days 2140  
Cooling Degree Days 8 10  
Month to date cooling degree days 124  
Year to date cooling degree days 278  
Growing Degree Days 24 (Base 50)    
Moisture  
Dew Point 68 °F    
Average Humidity 82    
Maximum Humidity 100    
Minimum Humidity 59    
Precipitation  
Precipitation 0.00 in 0.13 in 3.42 in (1920)
Month to date precipitation 2.20  
Year to date precipitation 12.79  
Sea Level Pressure  
Sea Level Pressure 29.80 in    
Wind  
Wind Speed 12 mph (SSE)    
Max Wind Speed 21 mph    
Max Gust Speed 28 mph    
Visibility 10 miles    
Events Rain , Thunderstorm    
T = Trace of Precipitation, MM = Missing Value Source: NWS Daily Summary

Daily Weather History Graph

Daily Weather History Graph

Search for Another Location

Airport:

Trip Planner

Search our weather history database for the weather conditions in past years. The results will help you decide how hot, cold, wet, or windy it might be!

Date:

Astronomy

May. 16, 2013 Rise Set
Actual Time 6:35 AM CDT 8:23 PM CDT
Civil Twilight 6:08 AM CDT 8:50 PM CDT
Nautical Twilight 5:35 AM CDT 9:22 PM CDT
Astronomical Twilight 5:01 AM CDT 9:56 PM CDT
Moon 12:03 PM CDT (5/16) 12:50 AM CDT (5/16)
Length of Visible Light 14h 41m
Length of Day
13h 48m
Waxing Crescent, 36% of the Moon is Illuminated
May 16
Waxing Crescent
May 17
First Quarter
May 24
Full
May 31
Last Quarter
Jun 8
New

Hourly Weather History & Observations

Time (CDT) Temp. Heat Index Dew Point Humidity Pressure Visibility Wind Dir Wind Speed Gust Speed Precip Events Conditions
12:15 AM 61.7 °F - 61.7 °F 100% 29.85 in 10.0 mi South 20.7 mph 27.6 mph N/A Rain , Thunderstorm Light Thunderstorms and Rain
12:35 AM 62.8 °F - 62.8 °F 100% 29.84 in 10.0 mi SE 12.7 mph - N/A Thunderstorm Thunderstorm
12:55 AM 63.0 °F - 63.0 °F 100% 29.83 in 10.0 mi South 13.8 mph - N/A   Scattered Clouds
1:15 AM 63.7 °F - 63.7 °F 100% 29.82 in 10.0 mi South 11.5 mph - N/A   Clear
1:35 AM 64.6 °F - 64.6 °F 100% 29.83 in 10.0 mi South 13.8 mph - N/A Thunderstorm Thunderstorm
1:55 AM 64.9 °F - 64.6 °F 99% 29.81 in 10.0 mi South 12.7 mph - N/A   Clear
2:15 AM 65.3 °F - 64.9 °F 99% 29.80 in 10.0 mi South 10.4 mph - N/A   Clear
2:35 AM 64.6 °F - 64.6 °F 100% 29.80 in 10.0 mi SSE 8.1 mph - N/A   Clear
2:55 AM 64.8 °F - 64.6 °F 99% 29.79 in 10.0 mi SSW 6.9 mph - N/A   Clear
3:15 AM 64.6 °F - 64.2 °F 99% 29.79 in 10.0 mi Calm Calm - N/A   Clear
3:35 AM 67.6 °F - 64.0 °F 88% 29.78 in 10.0 mi SSE 6.9 mph - N/A   Clear
3:55 AM 65.5 °F - 64.8 °F 98% 29.80 in 10.0 mi SSE 9.2 mph - N/A   Clear
4:15 AM 63.7 °F - 63.7 °F 100% 29.80 in 10.0 mi SE 8.1 mph - N/A   Clear
5:15 AM 63.7 °F - 63.7 °F 100% 29.80 in 10.0 mi SSE 11.5 mph - N/A   Clear
5:35 AM 64.6 °F - 64.6 °F 100% 29.80 in 10.0 mi SSE 12.7 mph - N/A   Mostly Cloudy
5:55 AM 66.0 °F - 66.0 °F 100% 29.80 in 10.0 mi SSE 15.0 mph 19.6 mph N/A   Overcast
6:15 AM 66.2 °F - 66.2 °F 100% 29.80 in 10.0 mi SSE 12.7 mph - N/A   Overcast
6:35 AM 66.4 °F - 66.4 °F 100% 29.80 in 7.0 mi SSE 15.0 mph 18.4 mph N/A   Overcast
6:55 AM 66.6 °F - 66.6 °F 100% 29.81 in 4.0 mi SSE 12.7 mph 17.3 mph N/A   Overcast
7:15 AM 67.6 °F - 67.6 °F 100% 29.82 in 4.0 mi South 10.4 mph 16.1 mph N/A   Overcast
7:35 AM 68.9 °F - 68.9 °F 100% 29.81 in 5.0 mi SSE 12.7 mph 19.6 mph N/A   Overcast
7:55 AM 69.8 °F - 69.8 °F 100% 29.82 in 7.0 mi South 15.0 mph 23.0 mph N/A   Overcast
8:15 AM 70.3 °F - 70.3 °F 100% 29.82 in 10.0 mi South 15.0 mph 23.0 mph N/A   Overcast
8:35 AM 70.7 °F - 70.7 °F 100% 29.82 in 10.0 mi South 16.1 mph 21.9 mph N/A   Overcast
8:55 AM 71.4 °F - 70.7 °F 98% 29.82 in 10.0 mi South 17.3 mph 21.9 mph N/A   Overcast
9:15 AM 71.8 °F - 70.2 °F 95% 29.83 in 10.0 mi South 12.7 mph 19.6 mph N/A   Overcast
9:35 AM 72.0 °F - 69.3 °F 91% 29.84 in 10.0 mi South 13.8 mph 17.3 mph N/A   Overcast
9:55 AM 72.7 °F - 69.6 °F 90% 29.84 in 10.0 mi South 13.8 mph 18.4 mph N/A   Overcast
10:15 AM 73.8 °F - 68.9 °F 85% 29.83 in 10.0 mi South 15.0 mph 21.9 mph N/A   Overcast
10:35 AM 73.8 °F - 68.7 °F 84% 29.83 in 10.0 mi South 15.0 mph 23.0 mph N/A   Overcast
10:55 AM 75.0 °F - 68.5 °F 80% 29.82 in 10.0 mi South 18.4 mph 26.5 mph N/A   Overcast
11:15 AM 76.8 °F - 69.1 °F 77% 29.81 in 10.0 mi South 15.0 mph 24.2 mph N/A   Overcast
11:35 AM 77.0 °F - 68.5 °F 75% 29.82 in 10.0 mi South 17.3 mph 25.3 mph N/A   Overcast
11:55 AM 77.2 °F - 68.5 °F 75% 29.82 in 10.0 mi South 17.3 mph 21.9 mph N/A   Overcast
12:15 PM 78.8 °F - 68.9 °F 72% 29.82 in 10.0 mi South 12.7 mph 20.7 mph N/A   Mostly Cloudy
12:35 PM 80.8 °F 83.8 °F 68.9 °F 67% 29.81 in 10.0 mi SSW 15.0 mph - N/A   Scattered Clouds
12:55 PM 81.3 °F 84.3 °F 68.4 °F 65% 29.81 in 10.0 mi SW 11.5 mph - N/A   Mostly Cloudy
1:15 PM 81.7 °F 84.7 °F 68.4 °F 64% 29.81 in 10.0 mi SSW 9.2 mph - N/A   Mostly Cloudy
1:35 PM 82.4 °F 85.8 °F 69.1 °F 64% 29.81 in 10.0 mi SSW 9.2 mph - N/A   Mostly Cloudy
1:55 PM 83.5 °F 86.9 °F 68.7 °F 61% 29.80 in 10.0 mi SSW 6.9 mph - N/A   Scattered Clouds
2:15 PM 83.7 °F 87.2 °F 68.9 °F 61% 29.80 in 10.0 mi SSW 4.6 mph - N/A   Mostly Cloudy
2:35 PM 84.2 °F 87.6 °F 68.4 °F 59% 29.80 in 10.0 mi South 3.5 mph - N/A   Mostly Cloudy
2:55 PM 85.3 °F 89.4 °F 69.6 °F 59% 29.79 in 10.0 mi Calm Calm - N/A   Scattered Clouds
3:15 PM 85.1 °F 89.4 °F 69.8 °F 60% 29.79 in 10.0 mi South 4.6 mph - N/A   Mostly Cloudy
3:35 PM 85.1 °F 89.4 °F 69.6 °F 60% 29.78 in 10.0 mi SSE 8.1 mph - N/A   Mostly Cloudy
3:55 PM 86.2 °F 91.1 °F 70.3 °F 59% 29.78 in 10.0 mi SE 10.4 mph - N/A   Mostly Cloudy
4:15 PM 85.6 °F 90.8 °F 70.9 °F 61% 29.77 in 10.0 mi SE 10.4 mph - N/A   Mostly Cloudy
4:35 PM 85.3 °F 90.4 °F 70.9 °F 62% 29.76 in 10.0 mi SE 15.0 mph 18.4 mph N/A   Scattered Clouds
4:55 PM 85.3 °F 90.4 °F 70.9 °F 62% 29.77 in 10.0 mi SE 13.8 mph 19.6 mph N/A   Clear
5:15 PM 84.6 °F 89.4 °F 70.7 °F 63% 29.76 in 10.0 mi SE 12.7 mph 18.4 mph N/A   Clear
5:35 PM 84.6 °F 89.4 °F 70.5 °F 63% 29.76 in 10.0 mi ESE 11.5 mph 19.6 mph N/A   Clear
5:55 PM 84.9 °F 89.7 °F 70.5 °F 62% 29.76 in 10.0 mi SE 12.7 mph 16.1 mph N/A   Clear
6:15 PM 84.4 °F 88.7 °F 70.2 °F 62% 29.76 in 10.0 mi SE 11.5 mph - N/A   Clear
6:35 PM 84.2 °F 88.4 °F 70.0 °F 62% 29.76 in 10.0 mi SE 13.8 mph - N/A   Clear
6:55 PM 83.3 °F 87.4 °F 69.8 °F 64% 29.76 in 10.0 mi SE 12.7 mph 17.3 mph N/A   Clear
7:15 PM 82.9 °F 86.5 °F 69.1 °F 63% 29.76 in 10.0 mi SE 11.5 mph 19.6 mph N/A   Clear
7:35 PM 82.4 °F 85.8 °F 69.1 °F 64% 29.76 in 10.0 mi SE 10.4 mph - N/A   Clear
7:55 PM 81.1 °F 84.4 °F 69.3 °F 67% 29.77 in 10.0 mi SE 10.4 mph - N/A   Clear
8:15 PM 79.9 °F - 69.4 °F 70% 29.77 in 10.0 mi SE 8.1 mph - N/A   Clear
8:35 PM 78.4 °F - 70.0 °F 75% 29.78 in 10.0 mi ESE 8.1 mph - N/A   Clear
8:55 PM 77.7 °F - 69.8 °F 76% 29.78 in 10.0 mi ESE 6.9 mph - N/A   Clear
9:15 PM 77.0 °F - 69.8 °F 78% 29.78 in 10.0 mi ESE 6.9 mph - N/A   Clear
9:35 PM 77.0 °F - 70.0 °F 79% 29.79 in 10.0 mi ESE 9.2 mph - N/A   Clear
9:55 PM 76.6 °F - 70.0 °F 80% 29.79 in 10.0 mi ESE 10.4 mph - N/A   Clear
10:15 PM 76.1 °F - 70.9 °F 84% 29.79 in 10.0 mi SE 9.2 mph - N/A   Clear
10:35 PM 75.7 °F - 72.1 °F 89% 29.80 in 10.0 mi SE 10.4 mph - N/A   Clear
10:55 PM 75.6 °F - 72.5 °F 90% 29.80 in 10.0 mi SE 12.7 mph - N/A   Clear
11:35 PM 74.8 °F - 73.6 °F 96% 29.80 in 10.0 mi SSE 12.7 mph - N/A   Clear
11:55 PM 74.8 °F - 73.4 °F 95% 29.80 in 10.0 mi SSE 12.7 mph 17.3 mph N/A   Clear